TimeAKDT,TemperatureF,Dew PointF,Humidity,Sea Level PressureIn,VisibilityMPH,Wind Direction,Wind SpeedMPH,Gust SpeedMPH,PrecipitationIn,Events,Conditions,WindDirDegrees,DateUTC
12:54 AM,51.1,50.0,96,29.65,10.0,Calm,Calm,-,N/A,,Clear,0,2013-06-24 08:54:00
1:54 AM,52.0,50.0,93,29.65,10.0,Calm,Calm,-,N/A,,Clear,0,2013-06-24 09:54:00
2:54 AM,51.1,48.9,92,29.65,10.0,Calm,Calm,-,N/A,,Clear,0,2013-06-24 10:54:00
3:54 AM,55.9,48.9,77,29.63,10.0,WNW,9.2,-,N/A,,Clear,290,2013-06-24 11:54:00
4:54 AM,55.9,48.9,77,29.62,10.0,WNW,11.5,-,N/A,,Clear,300,2013-06-24 12:54:00
5:54 AM,57.0,48.0,72,29.61,10.0,WNW,12.7,24.2,N/A,,Clear,300,2013-06-24 13:54:00
6:54 AM,57.9,48.0,70,29.60,10.0,NW,17.3,25.3,N/A,,Clear,310,2013-06-24 14:54:00
7:54 AM,60.1,48.0,64,29.59,10.0,WNW,17.3,24.2,N/A,,Clear,300,2013-06-24 15:54:00
8:54 AM,61.0,50.0,67,29.57,10.0,WNW,17.3,-,N/A,,Clear,300,2013-06-24 16:54:00
9:54 AM,66.0,48.9,54,29.56,10.0,NW,15.0,24.2,N/A,,Partly Cloudy,310,2013-06-24 17:54:00
10:54 AM,68.0,51.1,55,29.55,10.0,WNW,17.3,-,N/A,,Scattered Clouds,300,2013-06-24 18:54:00
11:54 AM,73.0,48.9,42,29.54,10.0,WNW,18.4,25.3,N/A,,Clear,300,2013-06-24 19:54:00
12:54 PM,77.0,48.0,36,29.51,10.0,WNW,17.3,24.2,N/A,,Clear,300,2013-06-24 20:54:00
1:54 PM,80.1,46.9,31,29.49,10.0,NW,16.1,23.0,N/A,,Clear,310,2013-06-24 21:54:00
2:54 PM,82.9,46.9,28,29.47,10.0,WNW,15.0,-,N/A,,Clear,300,2013-06-24 22:54:00
3:54 PM,84.0,48.0,28,29.45,10.0,WNW,15.0,-,N/A,,Clear,300,2013-06-24 23:54:00
4:54 PM,84.0,48.0,28,29.43,10.0,WNW,15.0,-,N/A,,Clear,300,2013-06-25 00:54:00
5:54 PM,82.9,48.0,29,29.41,10.0,WNW,13.8,-,N/A,,Clear,300,2013-06-25 01:54:00
6:54 PM,82.0,48.0,30,29.42,10.0,NW,11.5,-,N/A,,Clear,310,2013-06-25 02:54:00
7:54 PM,73.9,51.1,45,29.44,10.0,ESE,6.9,-,0.00,,Mostly Cloudy,120,2013-06-25 03:54:00
8:54 PM,66.0,57.9,75,29.57,10.0,ENE,6.9,18.4,0.12,,Overcast,70,2013-06-25 04:54:00
9:54 PM,64.9,59.0,81,29.56,10.0,Variable,3.5,-,0.03,,Overcast,0,2013-06-25 05:54:00
10:54 PM,61.0,59.0,93,29.60,7.0,NNW,8.1,-,0.12,Rain,Light Rain,330,2013-06-25 06:54:00
11:54 PM,63.0,59.0,87,29.58,10.0,NW,9.2,18.4,0.03,Rain,Light Rain,310,2013-06-25 07:54:00